Tracking 25963 objects as of 12-Aug-2022
HD Live streaming from Space Station
objects crossing your sky now

SATCOM 2R

Track SATCOM 2R now!
SATCOM 2R is classified as:


NORAD ID: 14328
Int'l Code: 1983-094A
Perigee: 35,961.4 km
Apogee: 36,113.6 km
Inclination: 15.0 °
Period: 1,448.6 minutes
Semi major axis: 42408 km
RCS: 4.023 m2 (large)
Launch date: September 8, 1983
Source: United States (US)
Launch site: AIR FORCE EASTERN TEST RANGE (AFETR)
aabbcc
Your satellite tracking list
Your tracking list is empty




NASA's NSSDC Master Catalog

Two Line Element Set (TLE):
1 14328U 83094A   22224.51661378  .00000055  00000-0  00000-0 0  9991
2 14328  15.0238 356.6561 0017936  59.0249 312.9046  0.99408534141593
Source of the keplerian elements: AFSPC